sat.trackr.live / text

‹ back to catalog

STARLINK-31603

NORAD 59201 · 2024-046A

PAYLOAD ACTIVE UNKNOWN

§ Identity

Operator
Country
US
Launch date
2024-03-11
Launch site
AFWTR
Launch vehicle
Mass (kg)
RCS (m²)

Purposes: comms

External: N2YO · Heavens-Above · Gunter

§ Orbital elements

Epoch: 2026-09-20T12:41:46.737888Z

Period
93.85 min
Inclination
53.1601°
Eccentricity
0.0000675
Mean motion
15.34376956 rev/d
Perigee alt
462.3 km
Apogee alt
463.2 km
Semi-major
6,840.9 km
B*
-4.2318e-5
RAAN
329.3938°
Arg perigee
65.2252°
Mean anomaly
294.8821°
Rev number
14,289

§ Raw data

STARLINK-316031 59201U 24046A   26263.52901317 -.00001804  00000+0 -42318-4 0  99962 59201  53.1601 329.3938 0000675  65.2252 294.8821 15.34376956142899

JSON: /api/v1/satellites/59201 · /tle

For live sub-satellite position, see the globe view (requires WebGL).

§ Visibility from observer

Set your observer location to see the next 7 days of passes ≥ 10°. The values pass through the URL so the page stays shareable.

No JS? Fill the form by hand. The geolocation button needs JavaScript.